Regional Weather Roundup
Issued by NWS

Home | Current Version | Previous Version | Graphics & Text | Print | Product List | Glossary Off
Versions: 1 2 3 4 5 6 7 8 9 10 11 12 13 14 15 16 17 18 19 20 21 22 23 24 25 26 27 28 29 30 31 32 33 34 35 36 37 38 39 40 41 42 43 44 45 46 47 48 49 50

000
ASUS43 KMKX 070121
RWRWI

WISCONSIN REGIONAL WEATHER ROUNDUP
NATIONAL WEATHER SERVICE MILWAUKEE/SULLIVAN WI
700 PM CST TUE DEC 06 2016

NOTE: "FAIR" INDICATES FEW OR NO CLOUDS BELOW 12,000 FEET WITH NO
SIGNIFICANT WEATHER AND/OR OBSTRUCTIONS TO VISIBILITY.

WIZ001-002-006>008-014>016-023>028-070200-
NORTHWEST WISCONSIN

CITY           SKY/WX    TMP DP  RH WIND       PRES   REMARKS
SUPERIOR ARPT  FLURRIES  23  17  77 SW22G29   29.55R WCI   7
ASHLAND        CLOUDY    23  15  71 SW20G35   29.58S WCI   8
HAYWARD        FLURRIES  22  14  71 SW15G22   29.60S WCI   9
SIREN          FLURRIES  22  14  70 SW17G30   29.63S WCI   8
CUMBERLAND     FLURRIES  21  14  73 SW22G29   29.65R WCI   5
RICE LAKE      FLURRIES  22  16  76 SW16G23   29.69R WCI   8
CHETEK         FLURRIES  22  15  77 SW13      29.69S WCI   9
LADYSMITH      FLURRIES  22  17  81 SW13G18   29.67F WCI  10
EAU CLAIRE     FLURRIES  23  16  74 SW15G24   29.73R WCI  10
MENOMONIE      CLOUDY    24  16  73 SW22G28   29.74R WCI   8
NEW RICHMOND   FLURRIES  22  13  67 W22G32    29.71R WCI   6
OSCEOLA        FLURRIES  23  15  71 SW24G33   29.74S WCI   6
$$

WIZ003>005-009-010-017-018-070200-
NORTH CENTRAL WISCONSIN

CITY           SKY/WX    TMP DP  RH WIND       PRES   REMARKS
MANITOWISH WTR FLURRIES  19  16  86 SW15G24   29.58F WCI   5
ARBOR VITAE    FLURRIES  22  17  80 SW14G22   29.61F WCI   9
WOODRUFF       FLURRIES  22  17  80 SW14G22   29.61F WCI   9
RHINELANDER    CLOUDY    21  16  81 SW15      29.64S WCI   8
EAGLE RIVER    FLURRIES  20  14  76 SW16G22   29.61S WCI   6
LAND O LAKES   FLURRIES  21  15  79 SW8       29.62S WCI  11
PHILLIPS       FLURRIES  19  15  84 SW13G22   29.62F WCI   6
TOMAHAWK       CLOUDY    20  15  81 SW8       29.67S WCI  10
MEDFORD        FLURRIES  20  14  78 SW10G22   29.67F WCI   9
MERRILL        CLOUDY    21  16  79 W15G21    29.70R WCI   8
$$

WIZ029-030-035-036-043>047-070200-
CENTRAL WISCONSIN

CITY           SKY/WX    TMP DP  RH WIND       PRES   REMARKS
WAUSAU         CLOUDY    22  15  75 SW12      29.70S WCI  10
MOSINEE        CLOUDY    21  18  86 SW16G24   29.72S WCI   7
MARSHFIELD     CLOUDY    22  15  75 SW17G24   29.71S WCI   8
STEVENS POINT  CLOUDY    22  15  74 SW14      29.74S WCI   9
WAUPACA        CLOUDY    27  19  70 SW14      29.78R WCI  16
WAUTOMA        CLOUDY    25  18  74 SW10      29.80R WCI  15
WISC RAPIDS    CLOUDY    24  16  71 W14G28    29.77S WCI  12
CAMP DOUGLAS   CLOUDY    25  18  74 W16       29.80R WCI  12
$$

WIZ011>013-019>022-031-037>040-048>050-070200-
NORTHEAST WISCONSIN

CITY           SKY/WX    TMP DP  RH WIND       PRES   REMARKS
ANTIGO         CLOUDY    20  16  83 W15       29.67F WCI   6
SHAWANO        CLOUDY    27  19  69 W14G21    29.74R WCI  16
OCONTO         CLOUDY    28  19  68 W18G26    29.72R WCI  16
STURGEON BAY   NOT AVBL
GREEN BAY      FLURRIES  28  19  69 W20G30    29.76R WCI  15
MANITOWOC      PTCLDY    30  22  72 W20G25    29.74R WCI  17
APPLETON       MOCLDY    27  18  69 W17       29.75R WCI  14
CLINTONVILLE   CLOUDY    27  18  69 W14G20    29.76R WCI  15
OSHKOSH        CLOUDY    26  17  68 W12G21    29.78R WCI  16
$$

WIZ032>034-041-042-053>061-070200-
SOUTHWEST WISCONSIN

CITY           SKY/WX    TMP DP  RH WIND       PRES   REMARKS
LA CROSSE      CLOUDY    27  17  66 SW15      29.84R WCI  15
SPARTA         CLOUDY    25  18  73 SW7G22    29.82R WCI  18
VIROQUA        CLOUDY    24  17  75 W25       29.83R WCI   7
BOSCOBEL       CLOUDY    28  17  63 W16G22    29.88S WCI  16
PRAIRIE DU CHI CLOUDY    28  17  64 W13G22    29.89F WCI  17
PLATTEVILLE    CLOUDY    27  20  74 W20       29.89R WCI  14
$$

WIZ056-057-062-063-064-067-068-070200-
SOUTH CENTRAL WISCONSIN

CITY           SKY/WX    TMP DP  RH WIND       PRES   REMARKS
REEDSBURG      CLOUDY    25  17  72 W15G22    29.83S WCI  13
BARABOO/DELLS  CLOUDY    25  17  70 W10G23    29.81F WCI  15
LONE ROCK      CLOUDY    27  18  69 W13G21    29.86S WCI  16
MINERAL POINT  CLOUDY    28  21  74 W17G23    29.85R WCI  16
MADISON        MOCLDY    26  17  68 W9        29.84R WCI  17
MIDDLETON      NOT AVBL
WATERTOWN      CLOUDY    26  19  73 W13G26    29.84R WCI  15
MONROE         CLOUDY    27  21  80 W23       29.86S WCI  12
JANESVILLE     CLOUDY    28  21  74 W17G25    29.87R WCI  16
$$

WIZ051-052-058>065-066-070>072-070200-
SOUTHEAST WISCONSIN

CITY           SKY/WX    TMP DP  RH WIND       PRES   REMARKS
MILWAUKEE      PTCLDY    31  19  61 W16G25    29.82R WCI  20
WAUKESHA       MOCLDY    25  18  74 W16G25    29.84R WCI  12
MILWAUKEE/TIMM CLEAR     28  18  64 W21G31    29.82R WCI  15
RACINE         CLEAR     30  20  66 W13G26    29.85R WCI  20
BURLINGTON     CLOUDY    28  21  76 W15G25    29.86R WCI  16
KENOSHA        CLEAR     29  20  69 W22G30    29.85R WCI  15
FOND DU LAC    CLOUDY    26  16  65 W15G25    29.79R WCI  14
SHEBOYGAN      CLEAR     29  20  69 W21G30    29.76R WCI  16
WEST BEND      CLEAR     27  19  74 W18G29    29.79R WCI  13
JUNEAU         CLOUDY    25  17  73 W14       29.83R WCI  13
$$

LSZ147-162-070200-
LAKE SUPERIOR

STATION/POSITION TIME  TEMP    WIND        PRES    WAVE
                       AIR SEA DIR/SP/G            HT/PER
                 (UTC) (F)     (DEG/KT/KT) (MB)    (FT/S)
DEVILS ISLAND    0000   25     220/ 21/ 29 1001.9F
PORT WING        2340   24     190/ 11/ 18 1001.4F
SAXON HARBOR     2330   24     200/ 17/ 25 1002.4S
$$

LMZ867-665-643>646-070200-
LAKE MICHIGAN

STATION/POSITION TIME  TEMP    WIND        PRES    WAVE
                       AIR SEA DIR/SP/G            HT/PER
                 (UTC) (F)     (DEG/KT/KT) (MB)    (FT/S)
CHAMBERS ISLAND  2340   36     200/  9/ 20 1004.1R
NORTHPORT PIER   2340   36      CALM  /  6 1004.1S
SISTER BAY       2323   36     260/ 16/ 19   N/A
ALGOMA LAKESHORE 2236          260/ 12/ 14   N/A
KEWAUNEE LAKESHO 0018   33     270/ 14/ 18 1005.6
SHEBOYGAN LAKESH 0000   34     250/ 11/ 12 1007.4R
PORT WASHINGTON  0017   32     260/ 15/ 28 1009.1R
MILWAUKEE LAKESH 0040   31     270/ 13/ 17   N/A
KENOSHA   LAKESH 0000   32     270/ 13/ 25 1009.8
$$

TC  - TEMPERATURE IN CELSIUS
VSB - VISIBILITY IN STATUTE MILES
WCI - WIND CHILL INDEX
HX  - HEAT INDEX





USA.gov is the U.S. government's official web portal to all federal, state and local government web resources and services.